This demonstration page uses our WeatherBlox Daily Observations layout. Learn more.

39.29038, -76.61219

Hourly Observations for July 25, 2019

Temp ( °F °C ) Dew Point ( °F °C ) Humidity (%) Winds ( mph kmh ) Pressure ( in mb ) Visibility ( mi km ) Precip ( " mm )
12:54 am 00:54 undefined 73 22.8 58 14.4 59 59 undefined N/A 30.04 1017 N/A 0 0
1:54 am 01:54 undefined 73 22.8 58 14.4 59 59 undefined N/A 30.04 1017 N/A 0 0
2:54 am 02:54 undefined 70 21.1 59 15 68 68 undefined N/A 30.04 1017 N/A 0 0
3:54 am 03:54 undefined 70 21.1 58 14.4 66 66 undefined N/A 30.05 1018 N/A 0 0
4:54 am 04:54 undefined 70 21.1 57 13.9 64 64 undefined N/A 30.06 1018 N/A 0 0
5:54 am 05:54 undefined 70 21.1 57 13.9 64 64 undefined N/A 30.07 1018 N/A 0 0
7:54 am 07:54 undefined 74 23.3 59 15 60 60 undefined N/A 30.1 1019 N/A 0 0
8:54 am 08:54 undefined 76 24.4 59 15 56 56 undefined N/A 30.11 1020 N/A 0 0
9:54 am 09:54 undefined 79 26.1 60 15.6 52 52 undefined N/A 30.12 1020 N/A 0 0
10:54 am 10:54 undefined 82 27.8 60 15.6 47 47 undefined N/A 30.12 1020 N/A 0 0
11:54 am 11:54 undefined 84 28.9 58 14.4 41 41 undefined N/A 30.13 1020 N/A 0 0
12:54 pm 12:54 undefined 85 29.4 57 13.9 39 39 undefined N/A 30.13 1020 N/A 0 0
1:54 pm 13:54 undefined 85 29.4 55 12.8 36 36 undefined N/A 30.12 1020 N/A 0 0
2:54 pm 14:54 undefined 85 29.4 56 13.3 37 37 undefined N/A 30.12 1020 N/A 0 0
3:54 pm 15:54 undefined 87 30.6 56 13.3 35 35 undefined N/A 30.12 1020 N/A 0 0
4:54 pm 16:54 undefined 86 30 54 12.2 33 33 undefined N/A 30.12 1020 N/A 0 0
5:54 pm 17:54 undefined 85 29.4 56 13.3 37 37 undefined N/A 30.12 1020 N/A 0 0
6:54 pm 18:54 undefined 84 28.9 57 13.9 40 40 undefined N/A 30.14 1021 N/A 0 0
7:54 pm 19:54 undefined 83 28.3 57 13.9 41 41 undefined N/A 30.15 1021 N/A 0 0
8:54 pm 20:54 undefined 82 27.8 58 14.4 44 44 undefined N/A 30.16 1022 N/A 0 0
9:54 pm 21:54 undefined 81 27.2 59 15 47 47 undefined N/A 30.18 1022 N/A 0 0
10:54 pm 22:54 undefined 80 26.7 59 15 49 49 undefined N/A 30.18 1022 N/A 0 0
11:54 pm 23:54 undefined 77 25 59 15 54 54 undefined N/A 30.19 1022 N/A 0 0

Powered by AerisWeather